[[{"header":{"parameterUnit":"m.s-1","parameterCategory":1,"la1":30.2991,"la2":30.254,"lo1":-89.0895,"lo2":-89.0444,"dy":0.0017,"dx":0.0017,"nx":28,"ny":28,"refTime":"2025-08-02T09:00:00:Z","depth":0,"parameterNumber":2,"parameterNumberName":"U-component_of_WINDS"},"data":[0,0,0,0,0,0,0,0,0,0,0,0,0,0,0,0,0,0,0,0,0,0,0,0,0,0,0,0,0,0,0,0,0,0,0,0,0,0,0,0,0,0,0,0,0,0,0,0,0,0,0,0,0,0,0,0,0,0,1.2645,1.2644,0,1.2559,1.2558,1.2557,1.2486,1.2485,1.2485,1.2484,1.2393,1.2391,1.2389,0,0,0,0,0,0,0,0,0,0,0,0,0,1.2748,1.2746,1.2645,1.2644,1.2643,1.2559,1.2558,1.2556,1.2486,1.2485,1.2484,1.2484,1.2393,1.2391,1.2389,0,0,0,0,0,0,0,0,0,0,0,0,0,1.2687,1.2746,1.2646,1.2598,1.2593,1.2559,1.2558,1.2556,1.2486,1.2485,1.2484,1.2483,1.2394,1.2392,1.2389,1.2395,0,0,1.2381,1.238,0,0,0,0,0,0,0,0,1.269,1.2683,1.2606,1.2601,1.2595,1.2532,1.256,1.2502,1.2487,1.2527,1.2484,1.2483,1.244,1.2433,1.2419,1.239,1.2386,1.2381,1.2379,1.2378,1.2377,0,0,0,0,0,0,0,1.2694,1.2686,1.2611,1.2605,1.2599,1.258,1.257,1.2549,1.249,1.2523,1.2518,1.2509,1.2437,1.2422,1.2417,1.2385,1.2381,1.2378,1.2377,1.2376,1.2356,1.2357,0,0,0,0,0,0,1.2706,1.269,1.2614,1.2608,1.2641,1.2579,1.2568,1.2553,1.249,1.248,1.251,1.2506,1.2427,1.242,1.2413,1.2415,1.2378,1.2376,1.2374,1.2355,1.2356,1.2357,0,0,0,0,0,0,1.2709,1.27,1.2617,1.2648,1.2636,1.2579,1.2563,1.2552,1.2538,1.248,1.2469,1.2506,1.2426,1.2417,1.24,1.2411,1.2374,1.2372,1.2353,1.2355,1.2357,1.242,0,0,0,0,0,0,1.2712,1.2702,1.2704,1.2648,1.2635,1.2606,1.2563,1.2551,1.2534,1.2528,1.2474,1.2464,1.2424,1.2404,1.2397,1.2407,1.237,1.2352,1.2354,1.2356,1.2417,1.2424,1.243,0,0,0,0,0,1.2716,1.2724,1.2704,1.2695,1.2636,1.2607,1.2599,1.2554,1.2535,1.2536,1.2499,1.2465,1.2411,1.2403,1.2395,1.2404,1.2351,1.2354,1.2356,1.2414,1.2422,1.2429,0,0,0,0,0,0,1.2781,1.2716,1.2693,1.2684,1.2652,1.2595,1.2595,1.2565,1.2536,1.2532,1.2477,1.2466,1.2454,1.2427,1.2419,1.2406,1.2377,1.2378,1.2424,1.2431,1.2438,1.2444,1.2368,0,0,0,0,0,1.2795,1.2777,1.2721,1.2719,1.2704,1.2653,1.2638,1.2607,1.2571,1.2556,1.2518,1.2484,1.2459,1.2444,1.2418,1.2413,1.24,1.2415,1.2421,1.2427,1.2428,1.2423,1.2429,1.2365,1.2365,1.2365,0,0,1.2822,1.2785,1.2777,1.2731,1.2702,1.2684,1.2641,1.2624,1.2611,1.2553,1.2535,1.2506,1.2464,1.2453,1.2446,1.243,1.2443,1.243,1.2435,1.2433,1.2426,1.2432,1.2438,1.2366,1.2366,1.2366,0,0,1.2863,1.2833,1.2828,1.28,1.2757,1.2723,1.2722,1.267,1.2649,1.263,1.2587,1.2569,1.2528,1.25,1.248,1.2511,1.2479,1.2504,1.2538,1.2533,1.2538,1.2543,1.2553,1.2558,1.2506,1.2506,1.2506,0,1.2902,1.2875,1.2828,1.2814,1.2795,1.2744,1.2738,1.2713,1.2664,1.2651,1.2634,1.2581,1.2549,1.2531,1.2539,1.2525,1.2521,1.251,1.2542,1.2545,1.2549,1.2558,1.2562,1.2509,1.2509,1.2508,1.2508,0,1.2925,1.2907,1.2907,1.2862,1.2843,1.2833,1.2784,1.2771,1.2741,1.2709,1.269,1.265,1.2615,1.2609,1.2579,1.2586,1.2578,1.2552,1.2522,1.2559,1.2567,1.257,1.2514,1.2513,1.2512,1.2511,0,0,1.3003,1.2934,1.2934,1.2913,1.2863,1.2847,1.2835,1.2802,1.2791,1.2759,1.2747,1.2713,1.2689,1.2667,1.2634,1.2631,1.2658,1.2605,1.2603,1.2616,1.2662,1.2681,1.2686,1.2636,1.2637,1.2637,1.2665,0,1.3036,1.3011,1.2969,1.2958,1.294,1.2892,1.288,1.2848,1.2818,1.2798,1.2764,1.2741,1.2711,1.2698,1.2692,1.2656,1.2666,1.2653,1.2623,1.2623,1.2635,1.269,1.271,1.2739,1.2668,1.2669,1.2669,0,1.307,1.3042,1.3029,1.298,1.2971,1.2962,1.2928,1.291,1.2872,1.285,1.2826,1.2791,1.2774,1.2748,1.2724,1.2716,1.2701,1.2682,1.2682,1.2676,1.2648,1.2686,1.2747,1.2751,1.2673,1.2673,1.2673,0,1.3128,1.3087,1.3074,1.3057,1.3,1.2995,1.2971,1.2932,1.2915,1.2885,1.2873,1.2842,1.2824,1.2801,1.2757,1.2742,1.2738,1.2708,1.2719,1.272,1.272,1.272,1.2778,1.2712,1.2712,1.2712,1.2712,0,1.3168,1.3162,1.3099,1.3091,1.3083,1.3035,1.3028,1.2999,1.2965,1.295,1.2906,1.2892,1.2836,1.2816,1.2783,1.2768,1.276,1.2742,1.2733,1.2745,1.2748,1.2734,1.2731,1.2713,1.2713,1.2712,1.2712,0,1.3231,1.3189,1.3171,1.3119,1.3106,1.3102,1.3056,1.3047,1.3014,1.2996,1.2988,1.2937,1.2911,1.2866,1.2827,1.2805,1.2796,1.2781,1.281,1.2804,1.2817,1.2816,1.2868,1.2872,1.2804,1.2805,1.2806,0,1.3259,1.3253,1.3201,1.3188,1.3165,1.3145,1.3128,1.3081,1.3064,1.3021,1.3016,1.2987,1.2961,1.2922,1.2881,1.2851,1.2834,1.2855,1.2829,1.2842,1.2834,1.2834,1.2833,1.286,1.2861,1.2862,1.2863,0,1.3313,1.3292,1.3269,1.3239,1.3219,1.3193,1.3164,1.3156,1.3102,1.3086,1.3059,1.304,1.3,1.2972,1.2936,1.291,1.2877,1.2871,1.2872,1.2884,1.2901,1.2891,1.2824,1.287,1.2869,1.2868,1.2868,1.2868,1.3358,1.3351,1.3313,1.3289,1.3262,1.3237,1.3225,1.3191,1.3169,1.3134,1.3107,1.3083,1.3045,1.2994,1.297,1.2949,1.2934,1.2936,1.2936,1.2937,1.2941,1.2905,1.2943,1.2943,1.2942,1.2942,1.2942,0,1.3409,1.3383,1.3361,1.3323,1.3303,1.3275,1.3242,1.3228,1.3207,1.3175,1.3151,1.3121,1.3093,1.305,1.3019,1.3011,1.2995,1.3004,1.3004,1.2999,1.2957,1.2959,1.3018,1.3018,1.3018,1.3018,1.3018,1.3018,1.3433,1.3419,1.3395,1.3367,1.334,1.3317,1.33,1.3276,1.325,1.3219,1.3196,1.3169,1.3132,1.3098,1.3071,1.3059,1.305,1.3064,1.3047,1.3009,1.3002,1.2995,1.2996,1.3062,1.3062,1.309,1.309,1.309]},{"header":{"parameterUnit":"m.s-1","parameterCategory":1,"la1":30.2991,"la2":30.254,"lo1":-89.0895,"lo2":-89.0444,"dy":0.0017,"dx":0.0017,"nx":28,"ny":28,"refTime":"2025-08-02T09:00:00:Z","depth":0,"parameterNumber":3,"parameterNumberName":"V-component_of_WINDS"},"data":[0,0,0,0,0,0,0,0,0,0,0,0,0,0,0,0,0,0,0,0,0,0,0,0,0,0,0,0,0,0,0,0,0,0,0,0,0,0,0,0,0,0,0,0,0,0,0,0,0,0,0,0,0,0,0,0,0,0,-4.4659,-4.4659,0,-4.4678,-4.4678,-4.4678,-4.4619,-4.4617,-4.4616,-4.4614,-4.463,-4.4632,-4.4634,0,0,0,0,0,0,0,0,0,0,0,0,0,-4.4568,-4.457,-4.4659,-4.4659,-4.4659,-4.4678,-4.4678,-4.4678,-4.4619,-4.4617,-4.4615,-4.4613,-4.4629,-4.4632,-4.4634,0,0,0,0,0,0,0,0,0,0,0,0,0,-4.46,-4.4571,-4.4659,-4.4632,-4.463,-4.4678,-4.4678,-4.4679,-4.462,-4.4617,-4.4615,-4.4612,-4.4628,-4.4631,-4.4635,-4.4708,0,0,-4.4644,-4.4646,0,0,0,0,0,0,0,0,-4.4598,-4.4603,-4.4636,-4.4634,-4.4632,-4.4644,-4.4652,-4.4688,-4.4621,-4.4624,-4.4614,-4.4611,-4.4636,-4.4639,-4.4648,-4.4709,-4.4709,-4.4644,-4.4646,-4.4648,-4.4649,0,0,0,0,0,0,0,-4.4596,-4.4602,-4.4666,-4.4636,-4.4634,-4.4618,-4.462,-4.4659,-4.4645,-4.4623,-4.4619,-4.4622,-4.4635,-4.4645,-4.4648,-4.4709,-4.4644,-4.4647,-4.4649,-4.465,-4.4831,-4.4834,0,0,0,0,0,0,-4.4598,-4.46,-4.4666,-4.4667,-4.4608,-4.4622,-4.4624,-4.4642,-4.4644,-4.4642,-4.4624,-4.4619,-4.4641,-4.4644,-4.4648,-4.4734,-4.4648,-4.4651,-4.4652,-4.4828,-4.4832,-4.4835,0,0,0,0,0,0,-4.4596,-4.4604,-4.4665,-4.4633,-4.4639,-4.4627,-4.4648,-4.4644,-4.4655,-4.4645,-4.4642,-4.4638,-4.4639,-4.4644,-4.4694,-4.4734,-4.4652,-4.4655,-4.4825,-4.4829,-4.4833,-4.4906,0,0,0,0,0,0,-4.4593,-4.4604,-4.4632,-4.4634,-4.4641,-4.4711,-4.465,-4.4647,-4.4661,-4.4654,-4.4657,-4.4655,-4.4637,-4.4689,-4.4697,-4.4737,-4.4657,-4.4821,-4.4827,-4.4832,-4.49,-4.4913,-4.4923,0,0,0,0,0,-4.459,-4.4651,-4.4634,-4.4642,-4.4676,-4.4713,-4.4718,-4.4697,-4.4664,-4.4692,-4.4686,-4.4655,-4.4729,-4.4695,-4.4703,-4.4744,-4.4819,-4.4825,-4.4832,-4.4895,-4.491,-4.4923,0,0,0,0,0,0,-4.4652,-4.465,-4.4631,-4.4694,-4.4705,-4.4703,-4.4738,-4.4714,-4.4733,-4.4726,-4.4699,-4.47,-4.4754,-4.4754,-4.4717,-4.4815,-4.4768,-4.4776,-4.4813,-4.4828,-4.4839,-4.4837,-4.466,0,0,0,0,0,-4.4674,-4.4705,-4.4701,-4.4757,-4.4764,-4.475,-4.4766,-4.4749,-4.4758,-4.4762,-4.4759,-4.4769,-4.4794,-4.4811,-4.4833,-4.4901,-4.49,-4.4933,-4.4944,-4.4954,-4.4961,-4.4996,-4.5011,-4.4857,-4.4857,-4.4856,0,0,-4.4717,-4.472,-4.4741,-4.477,-4.4776,-4.4808,-4.4754,-4.479,-4.4813,-4.4767,-4.4814,-4.4813,-4.4821,-4.488,-4.4906,-4.4882,-4.5004,-4.4962,-4.497,-4.4972,-4.5005,-4.5019,-4.5032,-4.4861,-4.486,-4.486,0,0,-4.4813,-4.4819,-4.4866,-4.4874,-4.4885,-4.4876,-4.4887,-4.489,-4.4888,-4.4935,-4.4901,-4.4928,-4.4972,-4.498,-4.4989,-4.509,-4.5061,-4.5098,-4.5157,-4.5192,-4.5204,-4.5215,-4.525,-4.5263,-4.5105,-4.5106,-4.5106,0,-4.4865,-4.4914,-4.4893,-4.4932,-4.4945,-4.4907,-4.4954,-4.4962,-4.4979,-4.4989,-4.4962,-4.5017,-4.502,-4.508,-4.5105,-4.5114,-4.5126,-4.5097,-4.5205,-4.5215,-4.5225,-4.5258,-4.5271,-4.511,-4.5109,-4.5109,-4.5109,0,-4.4977,-4.5011,-4.5048,-4.5067,-4.5085,-4.5128,-4.5113,-4.5133,-4.5116,-4.511,-4.5158,-4.5161,-4.5184,-4.5197,-4.518,-4.5255,-4.524,-4.5209,-4.516,-4.5244,-4.5275,-4.5287,-4.5116,-4.5115,-4.5113,-4.5112,0,0,-4.511,-4.512,-4.5133,-4.5142,-4.5152,-4.5177,-4.5218,-4.5242,-4.5259,-4.5273,-4.5306,-4.5345,-4.5318,-4.5329,-4.5312,-4.5343,-4.5422,-4.5309,-4.5308,-4.5329,-4.5504,-4.5526,-4.5542,-4.5404,-4.5407,-4.5408,-4.5504,0,-4.5204,-4.5276,-4.526,-4.533,-4.5361,-4.5326,-4.5362,-4.5371,-4.5367,-4.5392,-4.5386,-4.5414,-4.5376,-4.5383,-4.5412,-4.5406,-4.5457,-4.5399,-4.5434,-4.5435,-4.5432,-4.5558,-4.5581,-4.567,-4.5516,-4.5518,-4.5519,0,-4.5323,-4.5343,-4.5417,-4.5423,-4.5435,-4.5468,-4.5488,-4.5513,-4.5523,-4.5518,-4.5531,-4.5509,-4.5549,-4.5502,-4.5556,-4.5517,-4.553,-4.553,-4.5533,-4.5534,-4.5481,-4.5561,-4.5698,-4.5712,-4.5538,-4.5536,-4.5535,0,-4.5412,-4.5457,-4.5508,-4.5516,-4.5524,-4.5548,-4.5552,-4.556,-4.5575,-4.5593,-4.5603,-4.5625,-4.5636,-4.5654,-4.5638,-4.5605,-4.5695,-4.5646,-4.569,-4.5691,-4.5709,-4.5708,-4.5849,-4.572,-4.572,-4.572,-4.5719,0,-4.5518,-4.5564,-4.5548,-4.5579,-4.563,-4.561,-4.5661,-4.5661,-4.5668,-4.5698,-4.5669,-4.5697,-4.5675,-4.5701,-4.5689,-4.5735,-4.5741,-4.5737,-4.5733,-4.5739,-4.5739,-4.5746,-4.5739,-4.5723,-4.5722,-4.5722,-4.5721,0,-4.5625,-4.5616,-4.5668,-4.5673,-4.5675,-4.5712,-4.5715,-4.5743,-4.5738,-4.5775,-4.5783,-4.5774,-4.5803,-4.5789,-4.5819,-4.5811,-4.5871,-4.5859,-4.5868,-4.5865,-4.591,-4.5905,-4.6059,-4.6078,-4.5938,-4.5939,-4.594,0,-4.5692,-4.5727,-4.5736,-4.5755,-4.5762,-4.5791,-4.5808,-4.579,-4.5808,-4.5823,-4.585,-4.5877,-4.5897,-4.5946,-4.5941,-4.5964,-4.5951,-4.6004,-4.5954,-4.596,-4.5951,-4.5949,-4.5952,-4.6013,-4.6015,-4.6016,-4.6017,0,-4.5812,-4.5807,-4.5832,-4.5857,-4.5878,-4.5896,-4.5911,-4.5927,-4.591,-4.5932,-4.5963,-4.5979,-4.6011,-4.6038,-4.6058,-4.6061,-4.6036,-4.6033,-4.6045,-4.605,-4.6054,-4.6052,-4.5894,-4.6029,-4.6028,-4.6027,-4.6027,-4.6026,-4.5901,-4.5931,-4.5942,-4.5972,-4.5982,-4.5997,-4.6024,-4.6023,-4.6048,-4.6074,-4.6062,-4.6097,-4.6107,-4.6132,-4.6139,-4.6165,-4.6144,-4.6161,-4.6165,-4.6169,-4.6175,-4.6051,-4.6169,-4.6169,-4.6168,-4.6168,-4.6168,0,-4.6019,-4.6025,-4.6053,-4.6076,-4.6099,-4.6076,-4.6092,-4.6113,-4.6145,-4.6156,-4.6178,-4.6213,-4.624,-4.6238,-4.6262,-4.6283,-4.6273,-4.629,-4.6288,-4.6289,-4.6192,-4.618,-4.6299,-4.6299,-4.6299,-4.6299,-4.6299,-4.6298,-4.6083,-4.6133,-4.6129,-4.6183,-4.6188,-4.6224,-4.6235,-4.6249,-4.6258,-4.6299,-4.6321,-4.6321,-4.6327,-4.6352,-4.6375,-4.6373,-4.6383,-4.6405,-4.6399,-4.6309,-4.6295,-4.6283,-4.6271,-4.6407,-4.6407,-4.6493,-4.6494,-4.6494]}]]